Torna al catalogo

STARLINK-11209

AttivoComunicazioniVLEO
NORAD 61200·PAYLOAD·🇺🇸 United States

Lanciato Sep 20, 2024 da Vandenberg Space Force Base

Loading…

Prossimi Passaggi (prossime 24 ore)

TLE

AggiornatoSource: CelesTrak SupGP

Epoca: Sep 14, 2026, 14:10 UTC

1 61200C 24171A   26257.59076389  .00044184  00000+0  36412-3 0  2579
2 61200  53.1571 325.2445 0001294  66.1708 351.1136 15.69676121    17

Traccia STARLINK-11209 in tempo reale con AllMySat

Download on the App Store